Regional Weather Roundup
Issued by NWS

Home | Current Version | Previous Version | Graphics & Text | Print | Product List | Glossary On
Versions: 1 2 3 4 5 6 7 8 9 10 11 12 13 14 15 16 17 18 19 20 21 22 23 24 25 26 27 28
000
ASUS45 KBOU 162010
RWRCO

WEATHER ROUNDUP FOR COLORADO
NATIONAL WEATHER SERVICE DENVER/BOULDER CO
100 PM MST THU NOV 16 2017

NOTE: "FAIR" INDICATES FEW OR NO CLOUDS BELOW 12000 FEET WITH NO
SIGNIFICANT WEATHER AND/OR OBSTRUCTIONS TO VISIBILITY.

COZ001>005-013-030-031-162100-
...NORTHWEST COLORADO...

CITY           SKY/WX    TMP DP  RH WIND       PRES   REMARKS
CRAIG          FAIR      61  19  19 SW26G41   29.89F
HAYDEN         FAIR      59  22  24 SW22G29   29.91F
MEEKER         FAIR      59  20  22 SW18      29.94F
RABBIT EARS PA MOCLDY    45  21  39 SW9G20    30.07F
STEAMBOAT SPGS FAIR      52  24  33 NW3       29.93F
WALDEN         FAIR      54  16  22 SW33G44   29.92F
$$

COZ006>008-011-162100-
...WEST CENTRAL VALLEYS...

CITY           SKY/WX    TMP DP  RH WIND       PRES   REMARKS
GRAND JUNCTION FAIR      60  23  24 W7        29.94F
MONTROSE       FAIR      64  24  21 W14       30.02F
EAGLE          FAIR      61  22  22 SW25G36   29.98F
RIFLE          FAIR      60  20  21 SW13      29.95F
DELTA          FAIR      68  21  17 CALM      29.98F
NUCLA          FAIR      61  23  23 SW17G25   30.09F
$$

COZ017>023-064>068-162100-
...SOUTHWEST COLORADO...

CITY           SKY/WX    TMP DP  RH WIND       PRES   REMARKS
DURANGO        CLOUDY    57  19  22 E8        30.13F
CORTEZ         FAIR      63  22  20 S20G28    30.09F
PAGOSA SPRINGS FAIR      56  16  20 SW12G22   30.17F
TELLURIDE      CLOUDY    51  23  33 W6G16     30.19F
WOLF CREEK PAS FAIR      34  19  55 S30G43    30.30F WCI  20
$$

COZ009-010-012-014-032>034-037-058>063-162100-
...CENTRAL COLORADO...

CITY           SKY/WX    TMP DP  RH WIND       PRES   REMARKS
ASPEN          FAIR      59  20  22 SW10G23   30.01F
BUENA VISTA    FAIR      58  21  23 SW18G31   30.03S
COPPER MTN     FAIR      41  18  38 W28G47    30.17F
BERTHOUD PASS  FAIR      34  25  69 W32G54    30.15S WCI  20
COTTONWOOD PAS FAIR      52  23  32 W30G43    30.09S
GUNNISON       FAIR      52  22  30 CALM      30.07F
KREMMLING      FAIR      63  18  17 SW21G33   29.95F
LEADVILLE      FAIR      48  14  25 W14G26    30.09R
MONARCH PASS   FAIR      36  23  60 W46G56    30.30F
SALIDA         FAIR      64  23  21 SW13G26   30.10F
SUNLIGHT       FAIR      37  19  48 SW13G29   30.17F
WILKERSON PASS FAIR      45  14  29 SW29G40   30.14S
$$

COZ069>075-162100-
...SAN LUIS VALLEY/SANGRE DE CRISTO MOUNTAINS...

CITY           SKY/WX    TMP DP  RH WIND       PRES   REMARKS
ALAMOSA        FAIR      63  23  21 W14G32    30.07F
DEL NORTE      FAIR      56  22  26 SW7       30.09F
LA VETA PASS   FAIR      48  19  32 SW31G51     N/A
SAGUACHE       FAIR      52  19  28 S6        30.09F
$$

COZ035-036-038>040-162100-
...NORTHERN COLORADO FRONT RANGE...

CITY           SKY/WX    TMP DP  RH WIND       PRES   REMARKS
DENVER INTL AP PTSUNNY   72  16  12 VRB7      29.78F
DMNS CITY PARK   N/A     73  18  12 NE3G15    29.76F
AURORA         PTSUNNY   72  18  13 S7        29.79F
FRONT RANGE AP PTSUNNY   73  18  12 CALM      29.79F
ERIE MUNI ARPT FAIR      62  31  31 N9        29.81F
BOULDER MUN AP FAIR      59  30  33 N9        29.77F
CENTENNIAL     PTSUNNY   69  20  15 SW10      29.80F
BROOMFIELD     PTSUNNY   73  21  14 SE7       29.79
FORT COLLINS   FAIR      54  35  48 SW8       29.77F
LONGMONT       FAIR      61  31  32 N6        29.78F
$$

COZ041-046-047-076>085-087-088-162100-
...PIKES PEAK/PALMER DIVIDE AND SOUTHERN FOOTHILLS...

CITY           SKY/WX    TMP DP  RH WIND       PRES   REMARKS
COLO. SPRINGS  PTSUNNY   67  21  17 S14       29.88F
A. F. ACADEMY  FAIR      68  16  13 W21G31    29.87F
SCHRIEVER AFB  FAIR      66  16  14 SW14      29.89F
CHEYENNE MTN   FAIR      62  19  19 N3        29.85F
ELLICOTT         N/A    N/A N/A N/A W18G28    29.87F
FALCON         FAIR      67  14  13 S15       29.92F
FORT CARSON    FAIR      70  20  14 S20G30    29.83F
LIMON          FAIR      70  16  12 W14G21    29.82F
MONUMENT HILL  FAIR      64  18  16 W8G18     29.91S
CANON CITY     FAIR      72  23  16 W23G36    29.88F
WALSENBURG     FAIR      72  21  15 W14G28    29.93F
TRINIDAD       FAIR      68  18  14 SE3       29.92F
$$

COZ042>045-048>051-090-091-162100-
...NORTHEAST COLORADO...

CITY           SKY/WX    TMP DP  RH WIND       PRES   REMARKS
GREELEY ARPT   FAIR      55  30  38 VRB5      29.76F
AKRON          FAIR      72  14  11 S9        29.77F
BURLINGTON     FAIR      71  27  19 SW18      29.79F
WRAY           NOT AVBL
YUMA           FAIR      70  19  14 E5        29.76F
STERLING       FAIR      61  30  31 S6        29.75F
HOLYOKE        FAIR      66  28  24 SE8       29.77F
FORT MORGAN    FAIR      64  20  18 CALM      29.76F
$$

COZ086-089-092>099-162100-
...SOUTHEAST COLORADO...

CITY           SKY/WX    TMP DP  RH WIND       PRES   REMARKS
PUEBLO         FAIR      73  17  12 SW3       29.83F
LA JUNTA       FAIR      76  23  14 W12       29.82F
LAMAR          FAIR      71  27  19 VRB7      29.81F
SPRINGFIELD      N/A     71  24  17 SE12      29.86F
$$




USA.gov is the U.S. government's official web portal to all federal, state and local government web resources and services.